Location: Chequamegon National Forest
(46.1070°N, 90.8420°W)
Time: 11:58:50
(UTC-05:00)

Amateur Radio Satellites - All Passes

Search period start: 23 July 2016 11:28
Search period end: 24 July 2016 11:28
Location: Chequamegon National Forest, 46.1070°N, 90.8420°W

Satellite Date Start Highest point End Downlink Frequencies (MHz)
Time Altitude Azimuth
CUBEBUG 1 23 Jul 11:29:26 11:30:19 10° 88° (E) 11:31:12 437.445
AUBIESAT-1 23 Jul 11:30:28 11:35:05 85° 289° (WNW) 11:39:44 437.475
DELFI C3 23 Jul 11:38:14 11:41:49 34° 290° (WNW) 11:45:24 145.870
Cosmos 2504 23 Jul 11:40:57 11:49:40 67° 93° (E) 11:58:26 435.465 / 435.565
NANOSAT C BR1 23 Jul 11:46:00 11:50:14 89° 253° (WSW) 11:54:31 145.865
Oscar 11 23 Jul 11:47:11 11:49:59 17° 298° (WNW) 11:52:46 145.826/435.025
DUCHIFAT 1 23 Jul 11:52:31 11:56:44 81° 257° (WSW) 12:01:00 145.980
ANTELSAT 23 Jul 11:55:08 11:57:47 15° 271° (W) 12:00:28 437.575/2403.000
JAS-2 23 Jul 11:57:19 12:03:08 45° 68° (ENE) 12:08:22 435.910
AISAT 23 Jul 11:58:38 12:01:57 20° 93° (E) 12:05:15 437.250
QB50P1 23 Jul 12:05:57 12:10:05 52° 260° (W) 12:14:16 145.935-145.965
SO-50 23 Jul 12:11:19 12:14:21 16° 331° (NNW) 12:17:22 436.795
HO-68 23 Jul 12:11:50 12:13:57 11° 318° (NW) 12:16:03 435.675
POPSAT HIP 1 23 Jul 12:12:03 12:16:07 45° 261° (W) 12:20:15 437.405
DX 1 23 Jul 12:14:08 12:17:23 20° 93° (E) 12:20:37 434.975-435.025
ESTCUBE 1 23 Jul 12:14:29 12:18:49 45° 99° (E) 12:23:07 437.505/2401.250
BUGSAT 1 23 Jul 12:25:41 12:29:45 77° 258° (WSW) 12:33:53 437.445
QB50P2 23 Jul 12:32:27 12:36:04 27° 265° (W) 12:39:42 145.880/145.840
POLYITAN 1 23 Jul 12:35:08 12:38:43 26° 265° (W) 12:42:20 437.675
M-CUBED/EXP-1 PRIME 23 Jul 12:35:44 12:39:06 20° 303° (WNW) 12:42:32 437.505
UKube-1 23 Jul 12:35:57 12:39:37 26° 95° (E) 12:43:15 .
Oscar 19 23 Jul 12:37:18 12:41:39 29° 64° (ENE) 12:46:02 437.125/150
50 SAT 23 Jul 12:38:01 12:41:33 49° 100° (E) 12:45:02 437.505
VELOX 1 23 Jul 12:49:53 12:54:18 62° 101° (E) 12:58:43 145.980
HUMSAT D 23 Jul 12:50:17 12:52:49 16° 299° (WNW) 12:55:20 437.325/437.525
YUBILEINY 23 Jul 13:01:52 13:08:09 21° 303° (WNW) 13:14:30 435.215
CUBEBUG 1 23 Jul 13:02:47 13:07:11 84° 286° (WNW) 13:11:35 437.445
AUBIESAT-1 23 Jul 13:06:39 13:08:52 14° 307° (NW) 13:11:06 437.475
SPROUT 23 Jul 13:17:30 13:21:48 60° 101° (E) 13:26:03 437.525
AO-7 23 Jul 13:20:34 13:25:43 18° 42° (NE) 13:30:51 29.400- 29.500
Gurwin Techsat 1B 23 Jul 13:22:01 13:26:46 34° 65° (ENE) 13:31:32 435.225
RS-15 23 Jul 13:27:38 13:38:17 33° 11° (N) 13:49:05 29.354- 29.394
AISAT 23 Jul 13:34:24 13:38:38 45° 290° (WNW) 13:42:53 437.250
Cosmos 2504 23 Jul 13:35:58 13:43:42 33° 294° (WNW) 13:51:28 435.465 / 435.565
JAS-2 23 Jul 13:42:58 13:48:21 30° 264° (W) 13:53:16 435.910
DX 1 23 Jul 13:49:37 13:53:46 44° 290° (WNW) 13:57:55 434.975-435.025
ESTCUBE 1 23 Jul 13:51:58 13:55:20 21° 297° (WNW) 13:58:42 437.505/2401.250
AIST 1 23 Jul 14:00:17 14:04:21 45° 93° (E) 14:08:25
ITAMSAT 1 23 Jul 14:02:02 14:06:26 28° 63° (ENE) 14:10:52 435.822/435.867
SWISSCUBE 23 Jul 14:03:45 14:04:49 11° 87° (E) 14:05:54 437.505
UKube-1 23 Jul 14:11:48 14:15:41 33° 293° (WNW) 14:19:33 .
50 SAT 23 Jul 14:12:58 14:14:48 13° 297° (WNW) 14:16:37 437.505
Oscar 19 23 Jul 14:16:02 14:20:49 40° 262° (W) 14:25:40 437.125/150
AO-85 23 Jul 14:23:10 14:27:07 21° 112° (ESE) 14:30:57 145.980
BEESAT 23 Jul 14:24:03 14:26:59 16° 90° (E) 14:29:54 436.000
VELOX 1 23 Jul 14:27:33 14:30:19 16° 299° (WNW) 14:33:03 145.980
TISAT 1 23 Jul 14:28:53 14:33:10 85° 104° (ESE) 14:37:26 437.305
CUBEBUG 1 23 Jul 14:41:42 14:42:44 11° 303° (WNW) 14:43:47 437.445
ITUPSAT 1 23 Jul 14:43:33 14:47:26 24° 94° (E) 14:51:16 437.325
SPROUT 23 Jul 14:54:39 14:57:17 16° 299° (WNW) 14:59:55 437.525
Cosmos 2499 23 Jul 14:57:16 15:03:02 20° 76° (ENE) 15:08:43 435.465 / 435.565
Gurwin Techsat 1B 23 Jul 15:01:48 15:06:40 36° 263° (W) 15:11:35 435.225
AO-7 23 Jul 15:08:43 15:16:55 63° 64° (ENE) 15:25:10 29.400- 29.500
GONETS M04 23 Jul 15:09:53 15:17:10 32° 82° (E) 15:24:28
DANDE 23 Jul 15:31:08 15:32:53 16° 70° (ENE) 15:34:37 436.750
SO-50 23 Jul 15:37:58 15:39:42 12° 21° (NNE) 15:41:26 436.795
SWISSCUBE 23 Jul 15:38:31 15:43:19 88° 101° (ESE) 15:48:05 437.505
AIST 1 23 Jul 15:39:17 15:42:12 18° 292° (WNW) 15:45:08
KKS-1 23 Jul 15:40:41 15:41:53 11° 88° (E) 15:43:04 437.445
ITAMSAT 1 23 Jul 15:40:44 15:45:42 44° 261° (W) 15:50:43 435.822/435.867
RS-15 23 Jul 15:41:51 15:54:02 60° 42° (NE) 16:06:10 29.354- 29.394
MOZHAYETS 4 23 Jul 15:43:17 15:45:29 13° 88° (E) 15:47:39
CUSAT 1 23 Jul 15:47:35 15:50:15 55° 261° (W) 15:53:20 437.405
BEESAT 23 Jul 16:00:28 16:05:13 64° 287° (WNW) 16:09:55 436.000
AO-85 23 Jul 16:01:51 16:07:13 69° 308° (NW) 16:12:18 145.980
HORYU 2 23 Jul 16:03:50 16:07:21 23° 64° (ENE) 16:10:53 437.375
TISAT 1 23 Jul 16:06:39 16:08:10 12° 302° (WNW) 16:09:42 437.305
ITUPSAT 1 23 Jul 16:20:55 16:25:26 42° 292° (WNW) 16:29:55 437.325
STARS 23 Jul 16:29:25 16:32:30 18° 92° (E) 16:35:32 437.465
Cosmos 2499 23 Jul 16:45:59 16:54:53 83° 96° (E) 17:03:40 435.465 / 435.565
CUTE-I 23 Jul 16:51:04 16:54:09 16° 56° (NE) 16:57:14 437.470
NOAA 18 23 Jul 16:51:20 16:54:48 17° 56° (NE) 16:58:18 137.9125
AO-7 23 Jul 17:02:48 17:10:09 33° 264° (W) 17:17:34 29.400- 29.500
GONETS M04 23 Jul 17:04:49 17:13:24 63° 284° (WNW) 17:22:04
DANDE 23 Jul 17:14:21 17:15:30 12° 269° (W) 17:16:38 436.750
KKS-1 23 Jul 17:14:32 17:19:03 84° 285° (WNW) 17:23:32 437.445
SO-50 23 Jul 17:17:08 17:21:32 38° 44° (NE) 17:25:47 436.795
SWISSCUBE 23 Jul 17:18:10 17:20:25 13° 303° (WNW) 17:22:41 437.505
MOZHAYETS 4 23 Jul 17:18:35 17:23:11 72° 286° (WNW) 17:27:43
NOAA 15 23 Jul 17:22:59 17:27:41 34° 65° (ENE) 17:32:24 137.62
HORYU 2 23 Jul 17:39:25 17:43:40 42° 261° (W) 17:47:58 437.375
AO-85 23 Jul 17:45:00 17:48:33 18° 329° (NNW) 17:51:57 145.980
GOMX 1 23 Jul 17:51:58 17:55:30 27° 66° (ENE) 17:59:08 467.674
RS-15 23 Jul 17:54:49 18:06:34 54° 248° (WSW) 18:18:11 29.354- 29.394
Cubesat XI-IV 23 Jul 18:03:10 18:08:26 57° 70° (ENE) 18:13:43 437.490
STARS 23 Jul 18:04:49 18:09:08 50° 289° (WNW) 18:13:25 437.465
BRITE-PL 23 Jul 18:06:00 18:10:12 85° 76° (ENE) 18:14:22 437.365/2234.400
DOVE 4 23 Jul 18:06:25 18:09:28 19° 62° (ENE) 18:12:39 437.250
LilacSat-2 23 Jul 18:16:25 18:20:14 65° 75° (ENE) 18:24:07 437.200
CUBESAT XI-V 23 Jul 18:26:35 18:31:12 75° 102° (ESE) 18:35:48 437.345
CUTE-I 23 Jul 18:28:04 18:33:27 90° 190° (S) 18:38:52 437.470
NOAA 18 23 Jul 18:29:13 18:34:45 86° 254° (WSW) 18:40:21 137.9125
Cosmos 2499 23 Jul 18:41:56 18:49:03 26° 298° (WNW) 18:56:05 435.465 / 435.565
CINEMA 3 23 Jul 18:48:11 18:51:08 17° 60° (ENE) 18:54:09 145.822/145.860
KKS-1 23 Jul 18:53:30 18:54:52 11° 303° (WNW) 18:56:15 437.445
BEESAT 3 23 Jul 18:56:05 18:57:21 11° 109° (ESE) 18:58:38 437.485
SO-50 23 Jul 18:57:49 19:01:57 32° 244° (WSW) 19:05:58 436.795
NOAA 15 23 Jul 19:02:40 19:07:26 35° 263° (W) 19:12:14 137.62
HO-68 23 Jul 19:04:45 19:11:16 39° 61° (ENE) 19:17:49 435.675
SEEDS 23 Jul 19:04:58 19:07:08 14° 61° (ENE) 19:09:18 437.485
GONETS M04 23 Jul 19:07:45 19:12:21 15° 308° (NW) 19:16:59
YUBILEINY 23 Jul 19:13:40 19:17:42 14° 49° (NE) 19:21:43 435.215
COMPASS 1 23 Jul 19:24:06 19:26:33 15° 62° (ENE) 19:29:00 437.405
GOMX 1 23 Jul 19:29:58 19:33:35 29° 265° (W) 19:37:18 467.674
CANX-2 23 Jul 19:37:21 19:41:25 43° 71° (ENE) 19:45:29 2200.000
DOVE 4 23 Jul 19:42:46 19:46:50 46° 262° (W) 19:51:08 437.250
Cubesat XI-IV 23 Jul 19:44:45 19:48:51 22° 268° (W) 19:52:59 437.490
CUTE 1.7 + AOD 2 23 Jul 19:51:28 19:55:39 53° 72° (ENE) 19:59:49 437.475
LilacSat-2 23 Jul 19:53:56 19:54:59 11° 272° (W) 19:56:03 437.200
STRAND 1 23 Jul 19:54:47 19:59:34 38° 97° (E) 20:04:17 437.568
AAUSAT CUBESAT 2 23 Jul 19:55:23 19:58:47 25° 66° (ENE) 20:02:10 437.432
CUBESAT XI-V 23 Jul 20:05:30 20:08:01 15° 300° (WNW) 20:10:30 437.345
UWE-3 23 Jul 20:08:17 20:11:55 24° 64° (ENE) 20:15:36 435.000/436.395/437.385
CUTE-I 23 Jul 20:11:47 20:14:14 13° 273° (W) 20:16:42 437.470
RS-15 23 Jul 20:12:59 20:15:55 11° 270° (W) 20:18:49 29.354- 29.394
NOAA 18 23 Jul 20:13:49 20:16:13 13° 273° (W) 20:18:39 137.9125
PCSat 23 Jul 20:14:37 20:19:35 38° 113° (ESE) 20:24:35 145.827
M-CUBED/EXP-1 PRIME 23 Jul 20:17:40 20:19:20 12° 52° (NE) 20:21:03 437.505
ZACube-1 23 Jul 20:18:26 20:21:46 20° 63° (ENE) 20:25:07 437.345
PHONESAT 2.4 23 Jul 20:18:48 20:21:19 23° 168° (SSE) 20:23:50 2401.200-2431.200
FUNcube-1 23 Jul 20:19:52 20:23:07 20° 63° (ENE) 20:26:25 145.935
CUBEBUG 2 23 Jul 20:20:58 20:25:15 42° 70° (ENE) 20:29:41 437.445
CINEMA 3 23 Jul 20:23:20 20:27:44 61° 260° (W) 20:32:24 145.822/145.860
BEESAT 2 23 Jul 20:28:31 20:32:23 56° 122° (ESE) 20:36:18 435.950
BEESAT 3 23 Jul 20:30:31 20:34:26 78° 308° (NW) 20:38:24 437.485
SEEDS 23 Jul 20:38:05 20:42:19 69° 259° (W) 20:46:32 437.485
Cosmos 2491 23 Jul 20:40:26 20:45:27 17° 74° (ENE) 20:50:28 435.465 / 435.565
AUBIESAT-1 23 Jul 20:45:58 20:48:45 19° 57° (ENE) 20:51:41 437.475
HO-68 23 Jul 20:51:58 20:58:51 48° 260° (W) 21:05:49 435.675
DELFI C3 23 Jul 20:52:32 20:55:18 18° 64° (ENE) 20:58:04 145.870
COMPASS 1 23 Jul 20:57:31 21:01:40 59° 260° (W) 21:05:49 437.405
Oscar 11 23 Jul 21:06:48 21:11:04 58° 73° (ENE) 21:15:22 145.826/435.025
YUBILEINY 23 Jul 21:08:11 21:16:54 57° 75° (ENE) 21:25:32 435.215
AO-85 23 Jul 21:12:56 21:13:54 11° 18° (NNE) 21:14:51 145.980
CANX-2 23 Jul 21:14:20 21:17:28 20° 268° (W) 21:20:36 2200.000
O/OREOS (USA 219) 23 Jul 21:23:35 21:27:36 34° 106° (ESE) 21:31:39 437.305
CUTE 1.7 + AOD 2 23 Jul 21:29:09 21:31:48 16° 270° (W) 21:34:28 437.475
AAUSAT CUBESAT 2 23 Jul 21:30:22 21:34:08 33° 264° (W) 21:37:55 437.432
Cosmos 2504 23 Jul 21:31:41 21:38:46 29° 63° (ENE) 21:45:23 435.465 / 435.565
PRISM 23 Jul 21:32:40 21:36:39 49° 100° (E) 21:40:37 437.425
STRAND 1 23 Jul 21:34:10 21:38:38 31° 295° (WNW) 21:43:04 437.568
UWE-3 23 Jul 21:43:47 21:48:07 42° 263° (W) 21:52:33 435.000/436.395/437.385
M-CUBED/EXP-1 PRIME 23 Jul 21:49:32 21:53:13 76° 252° (WSW) 21:57:15 437.505
ZACube-1 23 Jul 21:53:18 21:57:41 50° 261° (W) 22:02:10 437.345
FUNcube-1 23 Jul 21:54:36 21:58:59 51° 261° (W) 22:03:28 145.935
PHONESAT 2.4 23 Jul 21:54:42 21:57:24 27° 185° (S) 22:00:05 2401.200-2431.200
AIST 2 23 Jul 21:56:22 21:59:44 25° 115° (ESE) 22:03:08 435.215
PCSat 23 Jul 21:57:55 22:02:58 39° 312° (NW) 22:08:06 145.827
CUBEBUG 2 23 Jul 21:58:28 22:02:04 23° 268° (W) 22:05:46 437.445
HUMSAT D 23 Jul 22:06:38 22:10:50 56° 73° (ENE) 22:15:05 437.325/437.525
ANTELSAT 23 Jul 22:07:20 22:09:11 12° 87° (E) 22:11:01 437.575/2403.000
BEESAT 2 23 Jul 22:07:28 22:10:32 21° 321° (NW) 22:13:38 435.950
BEESAT 3 23 Jul 22:10:38 22:12:46 14° 327° (NNW) 22:14:57 437.485
AUBIESAT-1 23 Jul 22:19:21 22:22:54 42° 257° (WSW) 22:26:45 437.475
DELFI C3 23 Jul 22:26:04 22:29:52 42° 261° (W) 22:33:40 145.870
CUBEBUG 1 23 Jul 22:27:27 22:29:31 13° 59° (ENE) 22:31:37 437.445
Cosmos 2491 23 Jul 22:32:06 22:40:47 79° 95° (E) 22:49:30 435.465 / 435.565
Oscar 11 23 Jul 22:45:01 22:47:34 15° 270° (W) 22:50:08 145.826/435.025
TIGRISAT 23 Jul 22:48:27 22:52:34 29° 95° (E) 22:56:35 435.000
AO-85 23 Jul 22:51:43 22:55:52 32° 42° (NE) 22:59:42 145.980
AISAT 23 Jul 22:58:24 23:01:58 25° 65° (ENE) 23:05:34 437.250
O/OREOS (USA 219) 23 Jul 23:03:08 23:07:02 29° 305° (NW) 23:10:57 437.305
UNISAT 6 23 Jul 23:03:15 23:07:44 43° 98° (E) 23:12:07 437.425
YUBILEINY 23 Jul 23:05:33 23:13:19 36° 276° (W) 23:21:02 435.215
ISS 23 Jul 23:07:27 23:10:23 31° 141° (SE) 23:13:20 145.825
PRISM 23 Jul 23:08:55 23:11:36 17° 298° (WNW) 23:14:18 437.425
DX 1 23 Jul 23:12:02 23:15:32 25° 65° (ENE) 23:19:02 434.975-435.025
ESTCUBE 1 23 Jul 23:16:10 23:20:35 57° 72° (ENE) 23:25:00 437.505/2401.250
50 SAT 23 Jul 23:17:56 23:21:15 33° 69° (ENE) 23:24:34 437.505
Cosmos 2504 23 Jul 23:24:38 23:32:56 68° 267° (W) 23:40:35 435.465 / 435.565
NANOSAT C BR1 23 Jul 23:29:39 23:31:32 13° 89° (E) 23:33:25 145.865
PHONESAT 2.4 23 Jul 23:31:35 23:33:22 14° 201° (SSW) 23:35:09 2401.200-2431.200
UKube-1 23 Jul 23:32:46 23:36:33 31° 67° (ENE) 23:40:22 .
AIST 2 23 Jul 23:34:09 23:38:03 40° 313° (NW) 23:41:59 435.215
DUCHIFAT 1 23 Jul 23:35:37 23:37:48 14° 89° (E) 23:40:00 145.980
ANTELSAT 23 Jul 23:41:48 23:46:30 81° 286° (WNW) 23:51:06 437.575/2403.000
HUMSAT D 23 Jul 23:44:13 23:46:49 16° 270° (W) 23:49:26 437.325/437.525
PCSat 23 Jul 23:45:55 23:47:58 12° 336° (NNW) 23:50:01 145.827
QB50P1 23 Jul 23:48:38 23:51:56 21° 93° (E) 23:55:12 145.935-145.965
VELOX 1 23 Jul 23:49:23 23:53:44 75° 75° (ENE) 23:58:09 145.980
TISAT 1 23 Jul 23:51:07 23:51:52 10° 57° (ENE) 23:52:37 437.305
POPSAT HIP 1 23 Jul 23:54:33 23:58:03 24° 94° (E) 00:01:32 437.405
CUBEBUG 1 24 Jul 00:00:56 00:05:14 75° 257° (WSW) 00:09:34 437.445
AIST 1 24 Jul 00:05:21 00:08:03 16° 67° (ENE) 00:10:44
BUGSAT 1 24 Jul 00:06:25 00:08:31 13° 90° (E) 00:10:35 437.445
SPROUT 24 Jul 00:13:11 00:17:23 62° 73° (ENE) 00:21:39 437.525
QB50P2 24 Jul 00:14:05 00:18:09 40° 98° (E) 00:22:11 145.880/145.840
POLYITAN 1 24 Jul 00:16:43 00:20:49 41° 98° (E) 00:24:52 437.675
TIGRISAT 24 Jul 00:25:03 00:29:15 33° 293° (WNW) 00:33:23 435.000
Cosmos 2491 24 Jul 00:31:39 00:38:38 26° 298° (WNW) 00:45:41 435.465 / 435.565
AO-85 24 Jul 00:32:19 00:36:20 34° 244° (WSW) 00:40:03 145.980
AISAT 24 Jul 00:34:14 00:38:17 36° 262° (W) 00:42:22 437.250
UNISAT 6 24 Jul 00:40:28 00:44:11 24° 296° (WNW) 00:47:52 437.425
ISS 24 Jul 00:43:32 00:46:43 51° 340° (NNW) 00:49:56 145.825
DX 1 24 Jul 00:47:34 00:51:33 36° 262° (W) 00:55:35 434.975-435.025
JAS-2 24 Jul 00:48:04 00:52:30 27° 95° (E) 00:57:07 435.910
50 SAT 24 Jul 00:52:19 00:54:59 19° 267° (W) 00:57:39 437.505
ESTCUBE 1 24 Jul 00:54:56 00:57:45 16° 269° (W) 01:00:35 437.505/2401.250
NANOSAT C BR1 24 Jul 01:03:28 01:07:45 68° 286° (WNW) 01:11:58 145.865
UKube-1 24 Jul 01:08:55 01:12:36 27° 264° (W) 01:16:19 .
DUCHIFAT 1 24 Jul 01:09:41 01:13:56 62° 287° (WNW) 01:18:08 145.980
SWISSCUBE 24 Jul 01:11:26 01:14:44 19° 61° (ENE) 01:18:02 437.505
GONETS M04 24 Jul 01:16:08 01:21:56 19° 56° (NE) 01:27:43
AIST 2 24 Jul 01:17:19 01:17:40 10° 335° (NNW) 01:18:00 435.215
ANTELSAT 24 Jul 01:20:53 01:22:24 11° 304° (WNW) 01:23:54 437.575/2403.000
Cosmos 2504 24 Jul 01:21:01 01:24:30 13° 289° (WNW) 01:27:54 435.465 / 435.565
TISAT 1 24 Jul 01:22:37 01:26:48 86° 76° (ENE) 01:31:03 437.305
QB50P1 24 Jul 01:23:50 01:27:51 40° 290° (WNW) 01:31:51 145.935-145.965
VELOX 1 24 Jul 01:29:06 01:30:45 12° 272° (W) 01:32:24 145.980
POPSAT HIP 1 24 Jul 01:29:59 01:33:55 35° 291° (WNW) 01:37:50 437.405
BEESAT 24 Jul 01:32:29 01:36:24 26° 64° (ENE) 01:40:20 436.000
Gurwin Techsat 1B 24 Jul 01:39:11 01:39:12 10° 85° (E) 01:39:13 435.225
BUGSAT 1 24 Jul 01:40:05 01:44:18 64° 287° (WNW) 01:48:31 437.445
AIST 1 24 Jul 01:41:46 01:46:00 54° 265° (W) 01:50:14
QB50P2 24 Jul 01:50:24 01:53:43 22° 296° (WNW) 01:57:01 145.880/145.840
SPROUT 24 Jul 01:51:33 01:53:45 14° 271° (W) 01:55:58 437.525
ITUPSAT 1 24 Jul 01:52:27 01:56:52 38° 67° (ENE) 02:01:18 437.325
POLYITAN 1 24 Jul 01:53:04 01:56:22 22° 296° (WNW) 01:59:39 437.675
ISS 24 Jul 02:20:41 02:23:36 29° 360° (N) 02:26:32 145.825
Oscar 19 24 Jul 02:24:25 02:29:32 58° 101° (E) 02:34:38 437.125/150
JAS-2 24 Jul 02:32:55 02:37:47 42° 292° (WNW) 02:42:54 435.910
Cosmos 2499 24 Jul 02:35:31 02:42:47 35° 67° (ENE) 02:49:31 435.465 / 435.565
KKS-1 24 Jul 02:40:34 02:43:09 15° 60° (ENE) 02:45:45 437.445
MOZHAYETS 4 24 Jul 02:47:16 02:50:27 19° 62° (ENE) 02:53:38
SWISSCUBE 24 Jul 02:47:20 02:52:05 61° 258° (WSW) 02:56:51 437.505
BEESAT 2 24 Jul 03:07:26 03:09:40 14° 33° (NNE) 03:11:54 435.950
BEESAT 3 24 Jul 03:08:24 03:11:26 20° 39° (NE) 03:14:28 437.485
BEESAT 24 Jul 03:09:28 03:13:59 42° 261° (W) 03:18:33 436.000
AO-7 24 Jul 03:09:30 03:14:05 15° 86° (E) 03:18:37 29.400- 29.500
GONETS M04 24 Jul 03:11:37 03:20:27 76° 79° (E) 03:29:18
Gurwin Techsat 1B 24 Jul 03:14:43 03:20:04 75° 103° (ESE) 03:25:22 435.225
PCSat 24 Jul 03:17:11 03:20:13 15° 30° (NNE) 03:23:16 145.827
STARS 24 Jul 03:28:24 03:31:49 23° 64° (ENE) 03:35:17 437.465
ITUPSAT 1 24 Jul 03:30:41 03:34:46 28° 265° (W) 03:38:54 437.325
ITAMSAT 1 24 Jul 03:50:39 03:55:46 54° 101° (E) 04:00:50 435.822/435.867
ISS 24 Jul 03:57:18 04:00:30 49° 20° (NNE) 04:03:41 145.825
CUBESAT XI-V 24 Jul 03:57:54 03:59:59 13° 58° (ENE) 04:02:04 437.345
Oscar 19 24 Jul 04:04:35 04:08:27 22° 299° (WNW) 04:12:20 437.125/150
KKS-1 24 Jul 04:14:47 04:19:12 67° 258° (WSW) 04:23:40 437.445
MOZHAYETS 4 24 Jul 04:22:38 04:27:12 57° 260° (W) 04:31:47
Cosmos 2499 24 Jul 04:28:32 04:36:17 53° 270° (W) 04:43:26 435.465 / 435.565
AIST 2 24 Jul 04:38:46 04:38:55 10° 25° (NNE) 04:39:04 435.215
DANDE 24 Jul 04:40:16 04:45:37 36° 96° (E) 04:49:47 436.750
BEESAT 2 24 Jul 04:44:10 04:48:11 77° 53° (NE) 04:52:11 435.950
BEESAT 3 24 Jul 04:45:32 04:49:26 57° 238° (WSW) 04:53:18 437.485
CUSAT 1 24 Jul 04:52:56 04:57:22 72° 281° (W) 05:00:46 437.405
Gurwin Techsat 1B 24 Jul 04:55:53 04:59:25 18° 302° (WNW) 05:02:57 435.225
PCSat 24 Jul 04:59:31 05:04:53 55° 52° (NE) 05:10:11 145.827
AO-7 24 Jul 04:59:54 05:08:18 73° 107° (ESE) 05:16:36 29.400- 29.500
STARS 24 Jul 05:03:48 05:07:57 41° 262° (W) 05:12:08 437.465
GONETS M04 24 Jul 05:09:36 05:16:23 26° 281° (W) 05:23:11
HORYU 2 24 Jul 05:27:47 05:31:43 29° 96° (E) 05:35:37 437.375
ITAMSAT 1 24 Jul 05:30:50 05:34:53 23° 299° (WNW) 05:38:54 435.822/435.867
CUBESAT XI-V 24 Jul 05:32:04 05:36:41 86° 248° (WSW) 05:41:21 437.345
ISS 24 Jul 05:33:53 05:36:51 33° 218° (SW) 05:39:50 145.825
STRAND 1 24 Jul 05:38:03 05:39:47 12° 54° (NE) 05:41:32 437.568
O/OREOS (USA 219) 24 Jul 05:52:18 05:55:02 15° 47° (NE) 05:57:45 437.305
BRITE-PL 24 Jul 06:07:27 06:11:11 23° 94° (E) 06:15:06 437.365/2234.400
RS-15 24 Jul 06:12:13 06:20:22 23° 98° (E) 06:28:45 29.354- 29.394
AIST 2 24 Jul 06:14:36 06:18:32 39° 46° (NE) 06:22:28 435.215
Cubesat XI-IV 24 Jul 06:18:50 06:22:28 18° 90° (E) 06:26:05 437.490
DANDE 24 Jul 06:23:25 06:28:22 29° 286° (WNW) 06:32:16 436.750
BEESAT 2 24 Jul 06:23:58 06:25:26 12° 251° (WSW) 06:26:53 435.950
CUTE-I 24 Jul 06:42:57 06:47:37 29° 95° (E) 06:52:13 437.470
PCSat 24 Jul 06:43:32 06:47:56 26° 251° (WSW) 06:52:18 145.827
NOAA 18 24 Jul 06:49:00 06:53:59 33° 96° (E) 06:58:55 137.9125
AO-7 24 Jul 06:53:23 07:00:25 32° 307° (NW) 07:07:25 29.400- 29.500
HORYU 2 24 Jul 07:04:17 07:08:16 31° 293° (WNW) 07:12:12 437.375
STRAND 1 24 Jul 07:12:56 07:18:03 71° 73° (ENE) 07:23:12 437.568
NOAA 15 24 Jul 07:14:25 07:19:42 71° 103° (ESE) 07:24:57 137.62
LilacSat-2 24 Jul 07:21:27 07:25:21 71° 102° (ESE) 07:29:12 437.200
GOMX 1 24 Jul 07:27:08 07:32:01 63° 101° (E) 07:37:12 467.674
O/OREOS (USA 219) 24 Jul 07:30:30 07:35:01 79° 249° (WSW) 07:39:34 437.305
DOVE 4 24 Jul 07:38:01 07:42:46 40° 97° (E) 07:47:41 437.250
BRITE-PL 24 Jul 07:45:25 07:49:49 45° 289° (WNW) 07:54:34 437.365/2234.400
AIST 2 24 Jul 07:53:23 07:56:53 26° 245° (WSW) 08:00:21 435.215
Cubesat XI-IV 24 Jul 07:57:42 08:03:03 67° 288° (WNW) 08:08:20 437.490
CINEMA 3 24 Jul 08:15:24 08:19:47 29° 94° (E) 08:24:08 145.822/145.860
HO-68 24 Jul 08:16:49 08:23:03 31° 94° (E) 08:29:15 435.675
RS-15 24 Jul 08:19:19 08:30:50 82° 122° (ESE) 08:43:00 29.354- 29.394
SEEDS 24 Jul 08:20:30 08:23:10 16° 91° (E) 08:25:49 437.485
CUTE-I 24 Jul 08:22:46 08:27:46 42° 293° (WNW) 08:32:45 437.470
YUBILEINY 24 Jul 08:23:08 08:25:41 12° 69° (ENE) 08:28:14 435.215
PRISM 24 Jul 08:24:17 08:28:14 49° 71° (ENE) 08:32:10 437.425
NOAA 18 24 Jul 08:29:33 08:34:42 40° 295° (WNW) 08:39:49 137.9125
COMPASS 1 24 Jul 08:38:38 08:41:30 18° 92° (E) 08:44:21 437.405
Cosmos 2491 24 Jul 08:39:21 08:47:40 45° 71° (ENE) 08:55:58 435.465 / 435.565
STRAND 1 24 Jul 08:54:35 08:57:45 16° 270° (W) 09:00:57 437.568
CANX-2 24 Jul 08:55:20 08:59:32 61° 100° (E) 09:03:41 2200.000
NOAA 15 24 Jul 08:55:21 08:58:55 19° 302° (WNW) 09:02:30 137.62
LilacSat-2 24 Jul 08:57:44 08:59:06 12° 299° (WNW) 09:00:28 437.200
GOMX 1 24 Jul 09:06:16 09:09:44 20° 297° (WNW) 09:13:19 467.674
ANTELSAT 24 Jul 09:08:10 09:11:01 16° 60° (ENE) 09:13:52 437.575/2403.000
CUTE 1.7 + AOD 2 24 Jul 09:09:27 09:13:41 76° 101° (ESE) 09:17:53 437.475
AAUSAT CUBESAT 2 24 Jul 09:09:50 09:13:30 30° 96° (E) 09:17:07 437.432
SO-50 24 Jul 09:13:23 09:18:01 44° 119° (ESE) 09:22:38 436.795
DOVE 4 24 Jul 09:15:59 09:20:19 30° 293° (WNW) 09:24:47 437.250
UWE-3 24 Jul 09:30:53 09:35:07 34° 96° (E) 09:39:16 435.000/436.395/437.385
ZACube-1 24 Jul 09:39:26 09:43:20 27° 94° (E) 09:47:08 437.345
Cubesat XI-IV 24 Jul 09:40:21 09:42:07 12° 307° (NW) 09:43:54 437.490
FUNcube-1 24 Jul 09:40:29 09:44:18 26° 94° (E) 09:48:02 145.935
CUBEBUG 2 24 Jul 09:45:27 09:50:13 68° 101° (ESE) 09:54:52 437.445
TIGRISAT 24 Jul 09:49:12 09:53:22 35° 68° (ENE) 09:57:38 435.000
CINEMA 3 24 Jul 09:52:19 09:56:57 38° 291° (WNW) 10:01:34 145.822/145.860
SEEDS 24 Jul 09:55:07 09:59:10 48° 288° (WNW) 10:03:10 437.485
AUBIESAT-1 24 Jul 09:57:10 09:58:39 11° 93° (E) 10:00:07 437.475
PRISM 24 Jul 10:01:20 10:03:49 16° 268° (W) 10:06:18 437.425
DELFI C3 24 Jul 10:01:36 10:04:30 19° 93° (E) 10:07:22 145.870
UNISAT 6 24 Jul 10:04:04 10:08:32 51° 71° (ENE) 10:13:05 437.425
HO-68 24 Jul 10:04:06 10:11:09 59° 293° (WNW) 10:18:09 435.675
YUBILEINY 24 Jul 10:11:54 10:20:26 59° 91° (E) 10:29:02 435.215
COMPASS 1 24 Jul 10:13:20 10:17:17 43° 289° (WNW) 10:21:11 437.405
Cosmos 2504 24 Jul 10:13:51 10:20:14 23° 78° (ENE) 10:26:38 435.465 / 435.565
NANOSAT C BR1 24 Jul 10:24:23 10:26:39 14° 60° (ENE) 10:28:55 145.865
Oscar 11 24 Jul 10:27:21 10:31:43 85° 103° (ESE) 10:36:02 145.826/435.025
DUCHIFAT 1 24 Jul 10:30:07 10:32:34 15° 61° (ENE) 10:35:02 145.980
CANX-2 24 Jul 10:32:30 10:34:56 15° 298° (WNW) 10:37:21 2200.000
RS-15 24 Jul 10:33:36 10:44:39 43° 330° (NNW) 10:56:13 29.354- 29.394
Cosmos 2491 24 Jul 10:36:23 10:44:32 46° 273° (W) 10:52:41 435.465 / 435.565
ANTELSAT 24 Jul 10:42:33 10:47:09 70° 258° (WSW) 10:51:52 437.575/2403.000
QB50P1 24 Jul 10:43:34 10:46:52 23° 65° (ENE) 10:50:12 145.935-145.965
AAUSAT CUBESAT 2 24 Jul 10:45:28 10:48:53 26° 293° (WNW) 10:52:18 437.432
CUTE 1.7 + AOD 2 24 Jul 10:47:07 10:48:57 13° 300° (WNW) 10:50:46 437.475
POPSAT HIP 1 24 Jul 10:49:29 10:52:58 25° 66° (ENE) 10:56:29 437.405
SO-50 24 Jul 10:54:14 10:58:39 33° 318° (NW) 11:03:01 436.795
BUGSAT 1 24 Jul 10:59:04 11:01:07 14° 60° (ENE) 11:03:13 437.445
M-CUBED/EXP-1 PRIME 24 Jul 10:59:58 11:04:33 56° 106° (ESE) 11:09:12 437.505
JAS-2 24 Jul 11:04:36 11:08:29 18° 59° (ENE) 11:12:08 435.910
UWE-3 24 Jul 11:07:28 11:11:29 29° 294° (WNW) 11:15:25 435.000/436.395/437.385
QB50P2 24 Jul 11:08:54 11:12:54 41° 70° (ENE) 11:16:57 145.880/145.840
POLYITAN 1 24 Jul 11:11:31 11:15:32 42° 70° (ENE) 11:19:36 437.675
ZACube-1 24 Jul 11:15:33 11:19:39 34° 292° (WNW) 11:23:40 437.345
FUNcube-1 24 Jul 11:16:29 11:20:36 35° 292° (WNW) 11:24:38 145.935
